VA7WMK Weather Reports


time (UTC)temp
C
wind
direction
speed
KPH
gust
KPH
rain 1hr
cm
rain 24hr
cm
rain mn
cm
humidity
%
barometer
mb
20260505022013 19 75 3.2 11.3 0.00 0.00 0.00 50 1006.8
20260505020505 20 76 3.2 9.7 0.00 0.00 0.00 50 1007.0
20260505015008 20 77 3.2 9.7 0.00 0.00 0.00 49 1007.0
20260505014505 20 76 3.2 9.7 0.00 0.00 0.00 49 1007.0
20260505013514 21 72 1.6 4.8 0.00 0.00 0.00 49 1007.1
20260505012006 21 67 1.6 4.8 0.00 0.00 0.00 49 1007.2
20260505011515 21 70 1.6 4.8 0.00 0.00 0.00 49 1007.2
20260505011012 21 65 1.6 4.8 0.00 0.00 0.00 49 1007.2
20260505010007 21 60 1.6 9.7 0.00 0.00 0.00 49 1007.2
20260505005504 21 61 3.2 9.7 0.00 0.00 0.00 49 1007.2
20260505004007 21 70 3.2 9.7 0.00 0.00 0.00 50 1007.2
20260505003004 20 73 3.2 8.0 0.00 0.00 0.00 52 1007.2
20260505002513 20 73 3.2 8.0 0.00 0.00 0.00 54 1007.2
20260505001004 19 67 1.6 14.5 0.00 0.00 0.00 54 1007.3
20260505000513 20 62 1.6 14.5 0.00 0.00 0.00 54 1007.4
20260504235509 20 44 0.0 4.8 0.00 0.00 0.00 53 1007.5
20260504235005 20 46 0.0 3.2 0.00 0.00 0.00 54 1007.5
20260504234514 20 50 0.0 4.8 0.00 0.00 0.00 54 1007.5
20260504233005 19 68 0.0 4.8 0.00 0.00 0.00 55 1007.5
20260504232011 19 67 0.0 1.6 0.00 0.00 0.00 55 1007.6
20260504231508 19 65 0.0 1.6 0.00 0.00 0.00 55 1007.6
20260504231016 19 54 0.0 1.6 0.00 0.00 0.00 56 1007.7
20260504230008 19 14 0.0 3.2 0.00 0.00 0.00 52 1007.9
20260504224506 20 78 0.0 3.2 0.00 0.00 0.00 41 1008.1
20260504224004 20 73 0.0 3.2 0.00 0.00 0.00 41 1008.0
20260504223510 21 70 0.0 3.2 0.00 0.00 0.00 40 1008.1
20260504025507 22 68 1.6 3.2 0.00 0.00 0.00 41 1009.0
20260504025015 23 69 1.6 3.2 0.00 0.00 0.00 42 1009.6